Tracking 19245 objects as of 22-Aug-2018
HD Live streaming from Space Station
objects crossing your sky now

INTELSAT 10 (PAS 10)

Track INTELSAT 10 (PAS 10) now!
INTELSAT 10 (PAS 10) is classified as:


NORAD ID: 26766
Int'l Code: 2001-019A
Perigee: 35,783.3 km
Apogee: 35,802.7 km
Inclination: 2.4 °
Period: 1,436.1 minutes
Semi major axis: 42163 km
RCS: 12.6191 m2 (large)
Launch date: May 15, 2001
Source: United States (US)
Launch site: TYURATAM MISSILE AND SPACE COMPLEX (TTMTR)

Direct-to-home video channels; 24 C-band, 24 Ku-band; Asia, Africa, Middle East, Europe.
aabbcc
Your satellite tracking list
Your tracking list is empty




NASA's NSSDC Master Catalog

Two Line Element Set (TLE):
1 26766U 01019A   18232.88059295 +.00000106 +00000-0 +00000-0 0  9997
2 26766 002.4220 083.0753 0002308 011.7319 238.8656 01.00274493016982
Source of the keplerian elements: AFSPC